Regional Weather Roundup
Issued by NWS

Home | Current Version | Previous Version | Graphics & Text | Print | Product List | Glossary On
Versions: 1 2 3 4 5 6 7 8 9 10 11 12 13 14 15 16 17 18 19 20 21 22 23 24 25 26 27 28 29 30 31 32 33 34 35 36 37 38 39 40 41 42 43 44 45 46 47 48 49
000
ASUS45 KBOU 262207
RWRCO

WEATHER ROUNDUP FOR COLORADO
NATIONAL WEATHER SERVICE DENVER/BOULDER CO
300 PM MST MON JAN 26 2015

NOTE: "FAIR" INDICATES FEW OR NO CLOUDS BELOW 12000 FEET WITH NO
SIGNIFICANT WEATHER AND/OR OBSTRUCTIONS TO VISIBILITY.

COZ001>005-013-030-031-262300-
...NORTHWEST COLORADO...

CITY           SKY/WX    TMP DP  RH WIND       PRES   REMARKS
CRAIG          SUNNY     39  27  62 S5        30.35F
HAYDEN         SUNNY     39  25  56 S3        30.35F
MEEKER         SUNNY     44  25  47 CALM      30.34F
MOUNT WERNER   NOT AVBL
STEAMBOAT SPGS SUNNY     39  26  60 CALM      30.36S
WALDEN         SUNNY     43  23  45 CALM      30.39F
$$

COZ006>008-011-262300-
...WEST CENTRAL VALLEYS...

CITY           SKY/WX    TMP DP  RH WIND       PRES   REMARKS
GRAND JUNCTION SUNNY     57  26  30 SE8       30.27F
MONTROSE       SUNNY     56  23  27 N6        30.31F
EAGLE          SUNNY     46  27  46 CALM      30.40F
RIFLE          SUNNY     54  25  32 SE5       30.31F
DELTA          SUNNY     58  25  28 CALM      30.30F
NUCLA          SUNNY     57  23  26 NW3       30.31S
$$

COZ017>023-064>068-262300-
...SOUTHWEST COLORADO...

CITY           SKY/WX    TMP DP  RH WIND       PRES   REMARKS
DURANGO        SUNNY     58  25  28 NE5       30.30S
CORTEZ         SUNNY     56  25  30 SW13      30.30R
PAGOSA SPRINGS SUNNY     59  17  19 S5        30.34S
TELLURIDE      SUNNY     56  12  17 W9        30.39S
WOLF CREEK PAS NOT AVBL
$$

COZ009-010-012-014-032>034-037-058>063-262300-
...CENTRAL COLORADO...

CITY           SKY/WX    TMP DP  RH WIND       PRES   REMARKS
ASPEN          SUNNY     48  23  37 NW5       30.36F
BUENA VISTA    SUNNY     59  15  17 SE6       30.36F
COPPER MTN     SUNNY     45  10  24 W7        30.56S
BERTHOUD PASS  FAIR      32  28  86 NW8       30.59S WCI  25
COTTONWOOD PAS SUNNY     57   9  14 SE9       30.45F
GUNNISON       SUNNY     23  14  68 CALM      30.48F
KREMMLING      SUNNY     32  21  64 CALM      30.45F
LEADVILLE      SUNNY     48  14  25 S7        30.43F
MONARCH PASS   SUNNY     37  12  35 NE14      30.65S
SALIDA         SUNNY     63  15  15 CALM      30.41F
SUNLIGHT       SUNNY     43  18  36 CALM      30.51S
WILKERSON PASS SUNNY     45  14  29 SW5       30.55R
$$

COZ069>075-262300-
...SAN LUIS VALLEY/SANGRE DE CRISTO MOUNTAINS...

CITY           SKY/WX    TMP DP  RH WIND       PRES   REMARKS
ALAMOSA        SUNNY     52  20  28 CALM      30.39S
LA VETA PASS   NOT AVBL
SAGUACHE       SUNNY     37  23  56 CALM      30.42S
$$

COZ035-036-038>040-262300-
...NORTHERN COLORADO FRONT RANGE...

CITY           SKY/WX    TMP DP  RH WIND       PRES   REMARKS
DENVER INTL AP MOSUNNY   71  19  14 N6        30.20F
DMNS CITY PARK   N/A     71  15  12 E5        30.20S
AURORA         MOSUNNY   69  20  15 E3        30.22F
FRONT RANGE AP NOT AVBL
ERIE MUNI ARPT SUNNY     72  15  11 CALM      30.18S
BOULDER MUN AP SUNNY     72  23  16 E5        30.18S
CENTENNIAL     MOSUNNY   66  20  17 SE5       30.23F
BROOMFIELD     SUNNY     72  19  14 S5        30.22S
FORT COLLINS   SUNNY     72  27  18 S7        30.17S
LONGMONT       SUNNY     76  20  12 SE3       30.19S
$$

COZ041-046-047-076>085-087-088-262300-
...PIKES PEAK/PALMER DIVIDE AND SOUTHERN FOOTHILLS...

CITY           SKY/WX    TMP DP  RH WIND       PRES   REMARKS
COLO. SPRINGS  SUNNY     63  26  24 SE9       30.28S
A. F. ACADEMY  SUNNY     63  20  18 NE7       30.28S
ELLICOTT         N/A    N/A N/A N/A CALM        N/A
FALCON         SUNNY     63  18  17 N7        30.32R
FORT CARSON    SUNNY     65  28  25 SE6       30.25S
LIMON          SUNNY     66  22  18 NW12      30.21F
MONUMENT HILL  SUNNY     59  19  21 NE5       30.30S
TRINIDAD       SUNNY     62  31  31 S7        30.28S
$$

COZ042>045-048>051-090-091-262300-
...NORTHEAST COLORADO...

CITY           SKY/WX    TMP DP  RH WIND       PRES   REMARKS
GREELEY ARPT   SUNNY     72  28  20 CALM      30.14S
AKRON          SUNNY     63  31  30 W5        30.17S
BURLINGTON     SUNNY     67  30  25 N10       30.16F
WRAY           SUNNY     69  30  23 W9        30.14S
STERLING       SUNNY     70  36  28 N10       30.13S
HOLYOKE        SUNNY     72  30  21 N13       30.12S
FORT MORGAN    SUNNY     67  25  20 CALM      30.17S
$$

COZ086-089-092>099-262300-
...SOUTHEAST COLORADO...

CITY           SKY/WX    TMP DP  RH WIND       PRES   REMARKS
PUEBLO         SUNNY     69  22  16 S3        30.20F
LA JUNTA       SUNNY     69  28  21 W3        30.20S
LAMAR          SUNNY     69  33  26 W9        30.16S
SPRINGFIELD      N/A     67  26  21 N12       30.21R
$$


USA.gov is the U.S. government's official web portal to all federal, state and local government web resources and services.